Tracking 31033 objects as of 15-Jul-2025
HD Live streaming from Space Station
objects crossing your sky now

TJS-7

Track TJS-7 now!
TJS-7 is classified as:


NORAD ID: 49115
Int'l Code: 2021-077A
Perigee: 35,786.5 km
Apogee: 35,801.5 km
Inclination: 0.5 °
Period: 1,436.1 minutes
Semi major axis: 42164 km
RCS: Unknown
Launch date: August 24, 2021
Source: People's Republic of China (PRC)
Launch site: Xichang Space Center, China (XSC)
Your satellite tracking list
Your tracking list is empty




NASA's NSSDC Master Catalog

Two Line Element Set (TLE):
1 49115U 21077A   25195.61091978 -.00000116  00000-0  00000-0 0  9999
2 49115   0.4880  88.2647 0001780  62.6359 262.3087  1.00270842  6170
Source of the keplerian elements: AFSPC